Simultaneous Nadir Overpasses (SNOs) Predictions

Prediction of SNOs between METOP-B and NOAA-19 Satellite Orbit:

Table of predicted SNOs for the next 14.0 days since TLE Epoch: 11/16/2019
Index Date (METOP-B) Time (METOP-B) Lat,Lon (METOP-B) SZA (METOP-B ) Date (NOAA-19) Time (NOAA-19) Lat,Lon (NOAA-19) SZA (NOAA-19 ) Distance(km) Time Diff (sec)
1 11/25/2019 04:58:14 -79.63, -55.57 79.02 11/25/2019 04:57:07 -79.65, -55.63 79.02 2.42 67
2 11/25/2019 05:48:54 79.64, 111.88 101.02 11/25/2019 05:48:04 79.62, 111.96 100.99 3.33 50
3 11/25/2019 06:39:36 -79.62, -81.02 79.02 11/25/2019 06:39:07 -79.63, -80.92 79.01 2.46 29
4 11/25/2019 07:30:16 79.63, 86.44 101.01 11/25/2019 07:30:05 79.62, 86.39 101.00 1.22 11
5 11/25/2019 08:20:57 -79.64,-106.19 78.98 11/25/2019 08:21:07 -79.61,-106.21 79.00 3.05 10
6 11/25/2019 09:11:37 79.62, 60.99 101.01 11/25/2019 09:12:04 79.60, 61.10 101.01 2.69 27
7 11/25/2019 10:02:18 -79.62,-131.64 78.98 11/25/2019 10:03:07 -79.62,-131.79 78.99 3.25 49
8 11/25/2019 10:52:59 79.61, 35.54 101.00 11/25/2019 10:54:05 79.61, 35.52 101.03 0.78 66




NCC Satellite Simultaneous Nadir Overpasses (SNOs) Prediction Service
